Weather History for Kansas City, MO

Change the Weather History Date:

Saturday, March 30, 2013

  Actual Average Record
Temperature  
Mean Temperature 57 °F -  
Max Temperature 69 °F 59 °F 78 °F (2012)
Min Temperature 48 °F 40 °F 27 °F (2003)
Degree Days  
Heating Degree Days 8    
Growing Degree Days 7 (Base 50)    
Moisture  
Dew Point 47 °F    
Average Humidity 72    
Maximum Humidity 97    
Minimum Humidity 57    
Precipitation  
Precipitation 0.00 in - - ()
Sea Level Pressure  
Sea Level Pressure 29.95 in    
Wind  
Wind Speed 5 mph (ESE)    
Max Wind Speed 10 mph    
Max Gust Speed -    
Visibility 10 miles    
Events      
Averages and records for this station are not official NWS values.
T = Trace of Precipitation, MM = Missing Value Source: NWS Daily Summary

Daily Weather History Graph

Daily Weather History Graph

Search for Another Location

Airport:

Trip Planner

Search our weather history database for the weather conditions in past years. The results will help you decide how hot, cold, wet, or windy it might be!

Date:

Astronomy

Mar. 30, 2013 Rise Set
Actual Time 7:05 AM CDT 7:40 PM CDT
Civil Twilight 6:38 AM CDT 8:07 PM CDT
Nautical Twilight 6:07 AM CDT 8:39 PM CDT
Astronomical Twilight 5:34 AM CDT 9:11 PM CDT
Moon 11:46 PM CDT (3/30) 9:03 AM CDT (3/30)
Length of Visible Light 13h 28m
Length of Day
12h 34m
Waning Gibbous, 86% of the Moon is Illuminated
Mar 30
Waning Gibbous
Apr 2
Last Quarter
Apr 10
New
Apr 18
First Quarter
Apr 25
Full

Hourly Weather History & Observations

Time (CDT) Temp. Dew Point Humidity Pressure Visibility Wind Dir Wind Speed Gust Speed Precip Events Conditions
12:54 AM 54.0 °F 39.0 °F 57% 30.08 in 10.0 mi ESE 4.6 mph - N/A   Clear
1:54 AM 54.0 °F 39.9 °F 59% 30.08 in 10.0 mi East 4.6 mph - N/A   Mostly Cloudy
2:54 AM 53.1 °F 39.9 °F 61% 30.06 in 10.0 mi East 6.9 mph - N/A   Mostly Cloudy
3:54 AM 52.0 °F 39.0 °F 61% 30.04 in 10.0 mi ENE 5.8 mph - N/A   Mostly Cloudy
4:54 AM 51.1 °F 39.9 °F 66% 30.01 in 10.0 mi East 3.5 mph - N/A   Mostly Cloudy
5:54 AM 48.9 °F 39.0 °F 69% 29.99 in 10.0 mi NNE 3.5 mph - N/A   Clear
6:10 AM 50.0 °F 39.2 °F 66% 29.99 in 10.0 mi East 3.5 mph - N/A   Mostly Cloudy
6:54 AM 54.0 °F 45.0 °F 72% 29.96 in 10.0 mi Calm Calm - N/A   Mostly Cloudy
7:54 AM 54.0 °F 46.0 °F 75% 29.96 in 10.0 mi SSE 5.8 mph - N/A   Overcast
8:54 AM 55.0 °F 48.0 °F 77% 29.94 in 10.0 mi SE 8.1 mph - N/A   Overcast
9:40 AM 55.4 °F 48.2 °F 77% 29.95 in 10.0 mi South 8.1 mph - N/A   Overcast
9:54 AM 55.0 °F 48.9 °F 80% 29.95 in 10.0 mi SSW 3.5 mph - N/A   Overcast
10:54 AM 55.9 °F 48.9 °F 77% 29.96 in 10.0 mi Calm Calm - N/A   Overcast
11:54 AM 55.9 °F 48.9 °F 77% 29.96 in 10.0 mi East 8.1 mph - N/A   Overcast
12:54 PM 57.9 °F 51.1 °F 78% 29.94 in 9.0 mi East 6.9 mph - 0.00 in   Overcast
1:34 PM 57.2 °F 50.0 °F 77% 29.93 in 9.0 mi East 6.9 mph - N/A   Overcast
1:51 PM 57.2 °F 50.0 °F 77% 29.93 in 9.0 mi East 5.8 mph - N/A   Overcast
1:54 PM 59.0 °F 51.1 °F 75% 29.92 in 9.0 mi ESE 5.8 mph - N/A   Overcast
2:54 PM 63.0 °F 53.1 °F 70% 29.88 in 10.0 mi South 3.5 mph - N/A   Overcast
3:54 PM 64.0 °F 52.0 °F 65% 29.87 in 10.0 mi Calm Calm - N/A   Overcast
4:54 PM 66.9 °F 51.1 °F 57% 29.86 in 10.0 mi North 5.8 mph - N/A   Partly Cloudy
5:54 PM 64.9 °F 52.0 °F 63% 29.86 in 10.0 mi East 10.4 mph - N/A   Scattered Clouds
6:54 PM 63.0 °F 51.1 °F 65% 29.86 in 10.0 mi ENE 5.8 mph - N/A   Clear
7:54 PM 59.0 °F 51.1 °F 75% 29.87 in 10.0 mi East 5.8 mph - N/A   Clear
8:54 PM 57.0 °F 51.1 °F 81% 29.89 in 10.0 mi SE 3.5 mph - N/A   Clear
9:54 PM 55.0 °F 50.0 °F 83% 29.90 in 9.0 mi East 4.6 mph - N/A   Clear
10:54 PM 52.0 °F 48.9 °F 89% 29.91 in 6.0 mi Calm Calm - N/A   Clear
11:54 PM 48.9 °F 48.0 °F 97% 29.92 in 4.0 mi Calm Calm - N/A   Clear